Warroad, MN

10:08 AM CST on December 16, 2017 (GMT -0600)
Warroad International-Carlson

Weather History for KRRT - March, 2013

Change the Weather History Date:

Monday, March 4, 2013

  Actual Average Record
Temperature  
Mean Temperature 22 °F -  
Max Temperature 24 °F 29 °F 47 °F (1993)
Min Temperature 19 °F 4 °F -25 °F (1989)
Degree Days  
Heating Degree Days 44    
Moisture  
Dew Point 15 °F    
Average Humidity 72    
Maximum Humidity 93    
Minimum Humidity 54    
Precipitation  
Precipitation 0.02 in - - ()
Sea Level Pressure  
Sea Level Pressure 30.02 in    
Wind  
Wind Speed 13 mph (ENE)    
Max Wind Speed 20 mph    
Max Gust Speed 25 mph    
Visibility 7 miles    
Events Snow    
Averages and records for this station are not official NWS values.
T = Trace of Precipitation, MM = Missing Value Source: NWS Daily Summary

Daily Weather History Graph

Daily Weather History Graph

Search for Another Location

Airport or City:

Trip Planner

Search our weather history database for the weather conditions in past years. The results will help you decide how hot, cold, wet, or windy it might be!

Date:

Astronomy

Mar. 04, 2013 Rise Set
Actual Time 6:56 AM CST 6:10 PM CST
Civil Twilight 6:25 AM CST 6:41 PM CST
Nautical Twilight 5:48 AM CST 7:18 PM CST
Astronomical Twilight 5:11 AM CST 7:55 PM CST
Moon 1:28 AM CST (3/4) 10:30 AM CST (3/4)
Length of Visible Light 12h 16m
Length of Day
11h 13m
Waning Gibbous, 52% of the Moon is Illuminated
Mar 4
Waning Gibbous
Mar 4
Last Quarter
Mar 11
New
Mar 19
First Quarter
Mar 27
Full

Hourly Weather History & Observations

Time (CST) Temp. Windchill Dew Point Humidity Pressure Visibility Wind Dir Wind Speed Gust Speed Precip Events Conditions
12:14 AM 24.8 °F 14.6 °F 10.4 °F 54% 29.97 in 10.0 mi East 10.4 mph - N/A   Mostly Cloudy
12:34 AM 24.8 °F 14.6 °F 10.4 °F 54% 29.97 in 10.0 mi ESE 10.4 mph - N/A   Overcast
12:54 AM 24.8 °F 14.0 °F 12.2 °F 59% 29.97 in 10.0 mi East 11.5 mph - N/A   Overcast
1:14 AM 24.8 °F 14.6 °F 10.4 °F 54% 29.97 in 10.0 mi ESE 10.4 mph - N/A   Overcast
1:54 AM 24.8 °F 14.6 °F 12.2 °F 59% 29.97 in 10.0 mi ESE 10.4 mph - N/A   Overcast
2:14 AM 24.8 °F 15.3 °F 12.2 °F 59% 29.97 in 10.0 mi ESE 9.2 mph - N/A   Overcast
2:34 AM 24.8 °F 14.6 °F 12.2 °F 59% 29.97 in 10.0 mi East 10.4 mph - N/A   Overcast
2:54 AM 24.8 °F 15.3 °F 12.2 °F 59% 29.96 in 10.0 mi East 9.2 mph - N/A   Overcast
3:14 AM 24.8 °F 15.3 °F 12.2 °F 59% 29.96 in 10.0 mi East 9.2 mph - N/A   Overcast
3:34 AM 24.8 °F 14.6 °F 12.2 °F 59% 29.96 in 10.0 mi East 10.4 mph - N/A   Overcast
3:53 AM 24.8 °F 14.6 °F 12.2 °F 59% 29.97 in 10.0 mi East 10.4 mph - N/A   Overcast
4:14 AM 24.8 °F 14.6 °F 12.2 °F 59% 29.97 in 10.0 mi East 10.4 mph - N/A   Overcast
4:34 AM 24.8 °F 14.0 °F 12.2 °F 59% 29.97 in 10.0 mi East 11.5 mph - N/A   Overcast
4:54 AM 24.8 °F 13.4 °F 12.2 °F 59% 29.97 in 10.0 mi East 12.7 mph 17.3 mph N/A   Overcast
5:14 AM 24.8 °F 14.0 °F 12.2 °F 59% 29.98 in 10.0 mi East 11.5 mph - N/A   Overcast
5:34 AM 23.0 °F 10.6 °F 10.4 °F 59% 29.98 in 10.0 mi East 13.8 mph - N/A   Overcast
5:54 AM 23.0 °F 10.6 °F 12.2 °F 63% 29.98 in 10.0 mi East 13.8 mph - N/A   Overcast
6:14 AM 23.0 °F 11.1 °F 10.4 °F 59% 29.98 in 10.0 mi East 12.7 mph - N/A   Overcast
6:34 AM 21.2 °F 8.3 °F 10.4 °F 63% 29.99 in 10.0 mi East 13.8 mph - N/A   Overcast
6:54 AM 21.2 °F 8.3 °F 10.4 °F 63% 29.99 in 10.0 mi East 13.8 mph - N/A   Overcast
7:14 AM 21.2 °F 8.9 °F 10.4 °F 63% 30.00 in 10.0 mi East 12.7 mph - N/A   Overcast
7:34 AM 21.2 °F 9.5 °F 10.4 °F 63% 30.00 in 10.0 mi East 11.5 mph - N/A   Overcast
7:54 AM 21.2 °F 10.9 °F 12.2 °F 68% 30.01 in 10.0 mi East 9.2 mph - N/A   Mostly Cloudy
8:14 AM 21.2 °F 8.9 °F 12.2 °F 68% 30.01 in 10.0 mi East 12.7 mph - N/A   Scattered Clouds
8:33 AM 21.2 °F 8.9 °F 12.2 °F 68% 30.00 in 10.0 mi East 12.7 mph - N/A   Clear
8:54 AM 19.4 °F 6.6 °F 10.4 °F 68% 30.00 in 10.0 mi East 12.7 mph - N/A   Clear
9:13 AM 19.4 °F 7.2 °F 10.4 °F 68% 30.00 in 10.0 mi East 11.5 mph - N/A   Clear
9:34 AM 21.2 °F 8.3 °F 10.4 °F 63% 29.99 in 10.0 mi East 13.8 mph - N/A   Clear
9:54 AM 21.2 °F 8.9 °F 10.4 °F 63% 29.99 in 10.0 mi East 12.7 mph 19.6 mph N/A   Clear
10:13 AM 21.2 °F 8.9 °F 12.2 °F 68% 30.00 in 10.0 mi East 12.7 mph - N/A   Clear
10:34 AM 21.2 °F 8.9 °F 12.2 °F 68% 29.99 in 10.0 mi ENE 12.7 mph - N/A   Clear
10:54 AM 23.0 °F 10.6 °F 12.2 °F 63% 29.99 in 10.0 mi East 13.8 mph - N/A   Clear
11:14 AM 23.0 °F 10.1 °F 12.2 °F 63% 29.99 in 10.0 mi East 15.0 mph - N/A   Clear
11:34 AM 23.0 °F 11.7 °F 12.2 °F 63% 29.99 in 10.0 mi East 11.5 mph 20.7 mph N/A   Clear
11:54 AM 23.0 °F 10.1 °F 15.8 °F 74% 29.99 in 10.0 mi ENE 15.0 mph - N/A   Clear
12:14 PM 23.0 °F 10.1 °F 15.8 °F 74% 29.99 in 10.0 mi ENE 15.0 mph - N/A   Clear
12:54 PM 24.8 °F 11.9 °F 15.8 °F 69% 29.99 in 10.0 mi ENE 16.1 mph 21.9 mph N/A   Clear
1:14 PM 24.8 °F 12.4 °F 15.8 °F 69% 29.98 in 10.0 mi ENE 15.0 mph - N/A   Clear
1:34 PM 24.8 °F 11.9 °F 15.8 °F 69% 29.98 in 10.0 mi ENE 16.1 mph - N/A   Clear
1:54 PM 24.8 °F 12.4 °F 15.8 °F 69% 29.98 in 10.0 mi NE 15.0 mph - N/A   Clear
2:14 PM 24.8 °F 10.7 °F 15.8 °F 69% 29.98 in 10.0 mi ENE 19.6 mph 23.0 mph N/A   Clear
2:34 PM 24.8 °F 11.9 °F 17.6 °F 74% 29.99 in 10.0 mi ENE 16.1 mph 23.0 mph N/A   Scattered Clouds
2:54 PM 24.8 °F 11.5 °F 17.6 °F 74% 30.00 in 5.0 mi ENE 17.3 mph - N/A Snow Light Snow
3:14 PM 24.8 °F 11.1 °F 19.4 °F 80% 30.01 in 2.0 mi ENE 18.4 mph - N/A Snow Light Snow
3:33 PM 24.8 °F 11.5 °F 19.4 °F 80% 30.01 in 1.5 mi ENE 17.3 mph - N/A Snow Light Snow
3:54 PM 24.8 °F 10.7 °F 19.4 °F 80% 30.01 in 1.8 mi ENE 19.6 mph 23.0 mph N/A Snow Light Snow
4:14 PM 24.8 °F 11.5 °F 19.4 °F 80% 30.02 in 1.8 mi ENE 17.3 mph - N/A Snow Light Snow
4:33 PM 24.8 °F 11.5 °F 19.4 °F 80% 30.02 in 3.0 mi ENE 17.3 mph - N/A Snow Light Snow
4:54 PM 23.0 °F 8.3 °F 19.4 °F 86% 30.03 in 4.0 mi ENE 19.6 mph 23.0 mph N/A Snow Light Snow
5:14 PM 23.0 °F 9.2 °F 19.4 °F 86% 30.04 in 1.2 mi ENE 17.3 mph 23.0 mph N/A Snow Light Snow
5:33 PM 23.0 °F 8.7 °F 19.4 °F 86% 30.04 in 0.5 mi ENE 18.4 mph 25.3 mph N/A Snow Light Snow
5:54 PM 23.0 °F 9.2 °F 19.4 °F 86% 30.05 in 1.2 mi ENE 17.3 mph - N/A Snow Light Snow
6:13 PM 23.0 °F 8.7 °F 19.4 °F 86% 30.05 in 2.5 mi ENE 18.4 mph - N/A Snow Light Snow
6:34 PM 23.0 °F 9.2 °F 19.4 °F 86% 30.05 in 1.5 mi NE 17.3 mph 24.2 mph N/A Snow Light Snow
6:54 PM 23.0 °F 10.1 °F 19.4 °F 86% 30.05 in 1.0 mi NE 15.0 mph 21.9 mph N/A Snow Light Snow
7:14 PM 23.0 °F 10.1 °F 19.4 °F 86% 30.06 in 1.2 mi ENE 15.0 mph 23.0 mph N/A Snow Light Snow
7:34 PM 23.0 °F 8.7 °F 19.4 °F 86% 30.07 in 1.0 mi NE 18.4 mph 24.2 mph N/A Snow Snow
7:54 PM 23.0 °F 9.2 °F 19.4 °F 86% 30.07 in 1.5 mi NE 17.3 mph 23.0 mph N/A Snow Light Snow
8:14 PM 23.0 °F 9.6 °F 19.4 °F 86% 30.08 in 3.0 mi NE 16.1 mph 20.7 mph N/A Snow Light Snow
8:34 PM 23.0 °F 9.2 °F 19.4 °F 86% 30.09 in 1.0 mi NE 17.3 mph - N/A Snow Light Snow
8:54 PM 23.0 °F 9.2 °F 19.4 °F 86% 30.09 in 1.2 mi NE 17.3 mph - N/A Snow Light Snow
9:14 PM 23.0 °F 9.6 °F 19.4 °F 86% 30.10 in 0.8 mi NE 16.1 mph 21.9 mph N/A Snow Snow
9:33 PM 23.0 °F 9.6 °F 19.4 °F 86% 30.11 in 1.0 mi NE 16.1 mph - N/A Snow Light Snow
9:54 PM 23.0 °F 10.1 °F 19.4 °F 86% 30.11 in 1.5 mi NE 15.0 mph - 0.01 in Snow Light Snow
10:14 PM 23.0 °F 9.6 °F 19.4 °F 86% 30.10 in 1.0 mi NE 16.1 mph 20.7 mph N/A Snow Snow
10:33 PM 23.0 °F 10.6 °F 19.4 °F 86% 30.11 in 1.0 mi NE 13.8 mph - N/A Snow Snow
10:54 PM 23.0 °F 10.6 °F 19.4 °F 86% 30.12 in 1.2 mi ENE 13.8 mph - N/A Snow Light Snow
11:14 PM 23.0 °F 10.6 °F 19.4 °F 86% 30.12 in 1.5 mi ENE 13.8 mph - N/A Snow Light Snow
11:33 PM 23.0 °F 10.6 °F 19.4 °F 86% 30.12 in 1.8 mi NE 13.8 mph - 0.01 in Snow Light Snow
11:54 PM 21.2 °F 8.9 °F 19.4 °F 93% 30.12 in 1.8 mi NE 12.7 mph - 0.01 in Snow Light Snow